Meteo Giornale » Osservazioni meteo Russia » Habarovsk
ore: 17:30 - Osservazioni Meteo Habarovsk
Lat. 48° 31' N Lon. 135° 10' E Alt. 72 metri s.l.m.
22 °C
Sereno
Temp. 24 Ore
12 °C
23 °C
Nord-Est
18 Km/h
Dew point 16 °C
Umidità 68 %
Visibilità 10 Km
Il sole sorge alle ore 06:16
Il sole tramonta alle ore 19:42
| Data e Ora | Cielo e Fenomeni | T °C | DP °C | Um. % | Pres. hPa | Vis. km | Vento km/h | |
|---|---|---|---|---|---|---|---|---|
| Oggi h: 17:30 | Sereno | 22 | 16 | 68 | 1017 | 10 | NE 18 | |
| Oggi h: 17:00 | Poco Nuvoloso | 23 | 15 | 60 | 1017 | 10 | E/NE 14.4 | |
| Oggi h: 16:30 | Poco Nuvoloso | 23 | 17 | 68 | 1017 | 10 | E/NE 14.4 | |
| Oggi h: 16:00 | Poco Nuvoloso | 23 | 17 | 68 | 1017 | 10 | NE 14.4 | |
| Oggi h: 15:30 | Nuvoloso | 23 | 16 | 64 | 1017 | 10 | E/NE 18 | |
| Oggi h: 15:00 | Nuvoloso | 23 | 16 | 64 | 1017 | 10 | NE 18 | |
| Oggi h: 14:30 | Nuvoloso | 22 | 15 | 64 | 1018 | 10 | E 10.8 | |
| Oggi h: 14:00 | Nuvoloso | 23 | 14 | 56 | 1018 | 10 | E 10.8 | |
| Oggi h: 13:30 | Nuvoloso | 22 | 14 | 60 | 1018 | 10 | E/SE 10.8 | |
| Oggi h: 13:00 | Nuvoloso | 22 | 14 | 60 | 1019 | 10 | N 7.2 | |
| Oggi h: 12:30 | Poco Nuvoloso | 23 | 15 | 60 | 1019 | 10 | E 14.4 | |
| Oggi h: 12:00 | Poco Nuvoloso | 22 | 14 | 60 | 1019 | 10 | E/SE 14.4 | |
| Oggi h: 11:30 | Sereno | 21 | 14 | 64 | 1019 | 10 | E/SE 10.8 | |
| Oggi h: 11:00 | Sereno | 21 | 13 | 60 | 1019 | 10 | E/SE 14.4 | |
| Oggi h: 10:30 | Sereno | 21 | 14 | 64 | 1019 | 10 | SE 14.4 | |
| Oggi h: 10:00 | Sereno | 20 | 15 | 72 | 1020 | 10 | S/SE 10.8 | |
| Oggi h: 09:30 | Sereno | 18 | 15 | 82 | 1019 | 10 | N 7.2 | |
| Oggi h: 09:00 | Sereno | 17 | 15 | 88 | 1020 | 10 | N 7.2 | |
| Oggi h: 08:30 | Sereno | 15 | 14 | 93 | 1020 | 10 | N 7.2 | |
| Oggi h: 08:00 | Sereno | 15 | 14 | 93 | 1020 | 10 | N 7.2 | |
| Oggi h: 07:30 | Sereno | 14 | 14 | 100 | 1020 | 10 | N 3.6 | |
| Oggi h: 07:00 | Sereno | 13 | 13 | 100 | 1020 | 10 | N 7.2 | |
| Oggi h: 06:30 | Nebbia | 13 | 13 | 100 | 1019 | 10 | N 7.2 | |
| Oggi h: 06:00 | Sereno | 13 | 13 | 100 | 1019 | 10 | N 7.2 | |
| Oggi h: 05:30 | Sereno | 13 | 13 | 100 | 1019 | 10 | N 7.2 | |
| Oggi h: 05:00 | Sereno | 13 | 13 | 100 | 1019 | 10 | N 3.6 | |
| Oggi h: 04:30 | Sereno | 12 | 12 | 100 | 1019 | 10 | N 3.6 | |
| Oggi h: 04:00 | Sereno | 13 | 13 | 100 | 1019 | 10 | N 3.6 | |
| Oggi h: 03:30 | Sereno | 14 | 14 | 100 | 1019 | 10 | N 7.2 | |
| Oggi h: 03:00 | Sereno | 15 | 14 | 93 | 1019 | 10 | N 7.2 | |
| Oggi h: 02:30 | Sereno | 16 | 14 | 87 | 1019 | 10 | N 0 | |
| Oggi h: 02:00 | Sereno | 16 | 14 | 87 | 1019 | 10 | N 3.6 | |
| Oggi h: 01:30 | Sereno | 16 | 15 | 93 | 1019 | 10 | N 3.6 | |
| Oggi h: 01:00 | Nuvoloso | 16 | 15 | 93 | 1019 | 10 | N 3.6 | |
| Oggi h: 00:30 | Nuvoloso | 16 | 15 | 93 | 1019 | 10 | N 7.2 | |
| Oggi h: 00:00 | Nuvoloso | 17 | 15 | 88 | 1019 | 10 | N 7.2 | |
| Ieri h: 23:30 | Sereno | 17 | 15 | 88 | 1019 | 10 | N 7.2 | |
| Ieri h: 23:00 | Sereno | 17 | 15 | 88 | 1019 | 10 | N 7.2 | |
| Ieri h: 22:30 | Nuvoloso | 16 | 16 | 100 | 1019 | 10 | N 7.2 | |
| Ieri h: 22:00 | Nuvoloso | 17 | 15 | 88 | 1019 | 10 | N 7.2 | |
| Ieri h: 21:30 | Nuvoloso | 17 | 15 | 88 | 1019 | 10 | N 7.2 | |
| Ieri h: 21:00 | Nuvoloso | 16 | 15 | 93 | 1019 | 10 | E/NE 10.8 | |
| Ieri h: 20:30 | Nuvoloso | 17 | 15 | 88 | 1018 | 10 | NE 10.8 | |
| Ieri h: 20:00 | Nuvoloso | 17 | 15 | 88 | 1018 | 10 | NE 10.8 | |
| Ieri h: 19:30 | Nuvoloso | 17 | 15 | 88 | 1018 | 10 | N 7.2 | |
| Ieri h: 19:00 | Nuvoloso | 18 | 15 | 82 | 1018 | 10 | N 7.2 | |
| Ieri h: 18:30 | Nuvoloso | 18 | 15 | 82 | 1018 | 10 | E 10.8 | |
| Ieri h: 18:00 | Nuvoloso | 18 | 15 | 82 | 1018 | 10 | E/NE 10.8 | |



